Wind_Speed
12 8 9 9 10 12 13 14 14 16 17 15 13 10 9 10 7 7 9 11 13 10 7 8 6 9 13 11 12 14 14 14 13 12 15 16 14 17 19 19 23 24 22 23 23 23 22 22 22 22 21 19 19 20 21 21 19 19 19 19 20 18 17 18 18 18 17 17 16 14 14 13 13 13 13 13 12 11 10 11 12 11 11 11 10 10
12 9 10 12 13 14 13 15 16 17 18 17 14 10 9 8 6 9 9 8 10 8 6 8 7 8 12 13 14 15 14 14 16 16 18 18 15 17 21 17 20 24 23 23 24 24 23 22 23 22 22 20 20 21 22 21 20 20 19 19 20 20 18 18 18 18 17 16 16 14 14 12 12 13 13 12 12 10 9 11 11 10 11 11 10 10
10 10 12 14 14 14 14 14 15 18 17 14 12 9 9 8 5 10 11 9 8 6 6 10 9 8 11 13 15 16 14 13 19 18 16 15 11 13 19 19 18 23 24 24 25 25 24 24 23 23 22 21 21 21 22 22 21 20 20 20 21 19 19 18 18 18 17 16 15 13 13 12 12 12 12 12 12 9 9 10 10 10 10 10 10 10
8 9 13 14 13 14 16 14 15 16 13 11 9 7 9 8 6 7 10 12 9 5 9 12 9 8 12 12 13 16 16 14 16 14 12 16 17 17 22 23 18 20 24 25 26 26 25 25 24 24 23 22 22 22 22 22 21 21 21 22 22 19 19 19 19 18 17 16 15 13 14 14 13 13 12 13 12 10 9 10 10 9 10 10 10 10
9 10 14 16 14 14 15 14 13 10 9 11 11 10 9 7 6 4 5 9 9 8 12 12 6 6 11 12 12 13 15 14 13 12 12 18 22 19 19 20 18 19 24 25 26 27 26 26 25 24 24 23 23 23 23 23 22 21 21 22 23 20 19 19 19 19 17 18 18 15 15 14 13 13 12 12 12 10 10 10 10 10 10 10 10 9
11 12 14 16 16 15 14 12 11 9 8 10 12 14 13 7 9 10 6 4 6 8 11 12 5 4 10 12 12 12 13 14 15 14 13 16 20 19 18 21 21 20 22 24 26 27 26 26 26 25 25 24 24 23 23 23 22 21 21 22 23 22 21 20 20 20 18 20 21 17 16 16 15 14 13 13 11 10 11 11 9 9 10 10 10 10
9 12 14 15 16 15 14 11 12 12 9 8 10 14 17 12 9 13 10 6 5 6 10 12 6 4 8 10 13 15 15 15 14 14 14 14 17 19 20 21 21 22 23 24 25 26 26 26 26 26 26 25 25 24 23 23 22 22 22 23 22 22 22 20 21 22 19 20 21 17 16 17 17 15 13 13 10 9 11 12 9 9 10 10 9 9
8 14 14 13 14 14 13 10 10 12 9 7 9 13 16 16 10 9 8 7 7 7 8 13 9 4 6 9 13 15 16 16 14 13 14 16 18 20 20 18 20 25 26 26 26 26 26 26 27 26 26 26 25 24 24 24 23 23 23 23 23 22 22 21 21 23 21 20 21 19 16 15 15 14 13 14 13 11 10 11 10 9 10 11 9 9
10 15 15 12 12 11 9 9 10 11 10 9 11 12 15 16 12 9 8 8 9 9 6 10 11 5 5 9 11 11 14 16 16 15 16 18 19 19 18 16 17 21 24 25 26 26 26 27 27 26 25 25 25 25 25 24 24 24 24 24 24 23 22 21 22 23 22 20 21 20 18 16 15 14 14 14 14 13 12 10 11 10 10 11 10 9
11 15 16 11 10 8 6 10 13 12 9 11 14 14 13 14 12 8 7 6 8 8 5 9 11 6 5 8 8 9 11 12 12 12 14 17 19 18 17 17 18 19 21 22 23 23 25 26 26 26 25 25 24 25 25 24 25 25 25 25 25 24 24 23 22 23 22 21 21 21 19 17 16 14 14 14 14 14 14 13 13 11 10 11 11 9
11 14 15 9 7 9 9 11 15 13 10 11 12 10 9 9 9 9 7 6 7 7 8 11 12 9 6 7 8 7 9 10 11 10 10 14 18 18 18 19 20 21 22 22 22 22 23 24 25 25 25 25 25 25 25 25 25 26 26 26 26 25 25 24 23 23 23 22 22 22 20 18 17 15 14 15 15 16 16 15 14 13 11 11 11 9
11 11 10 7 8 12 12 12 13 12 10 11 10 7 6 4 5 6 6 6 7 7 9 13 13 10 5 6 9 9 10 10 10 11 11 12 16 18 19 19 19 21 22 20 20 22 23 24 25 26 26 25 25 25 26 25 25 26 26 27 27 26 26 25 24 24 24 24 24 23 22 20 18 17 15 16 16 16 16 16 15 13 12 11 11 10
10 10 8 9 11 14 13 10 10 10 9 10 9 8 7 6 4 5 6 8 8 8 10 13 14 8 2 7 12 12 12 11 8 8 10 12 16 18 17 18 19 20 21 20 19 21 25 27 27 27 27 26 25 25 26 25 25 26 27 27 28 28 27 26 25 24 24 25 25 25 23 21 20 18 17 16 16 15 15 15 15 14 14 12 12 12
9 11 13 13 11 13 15 10 8 9 9 10 8 7 8 7 7 7 8 8 8 9 12 14 13 7 7 8 11 11 11 12 11 9 9 11 14 15 14 15 18 20 21 23 21 20 23 25 26 26 26 27 26 25 25 26 26 26 27 28 29 28 28 27 26 24 23 24 25 26 25 23 22 20 18 18 17 16 15 15 15 14 15 14 13 13
10 10 12 13 9 10 13 12 9 9 10 10 9 9 9 8 7 8 8 8 8 9 11 13 10 7 8 7 10 13 13 13 12 12 11 9 9 11 13 14 15 18 19 22 23 21 21 22 22 24 25 26 27 25 24 25 27 27 28 28 29 29 28 28 27 25 24 24 24 25 25 24 23 21 20 19 17 17 16 16 15 14 13 14 14 14
10 9 10 14 12 11 13 15 13 10 9 9 9 10 8 9 8 7 7 9 9 8 9 8 2 7 9 8 10 14 15 15 13 13 15 14 11 9 11 11 11 12 13 16 20 19 20 21 21 22 23 24 27 27 23 24 26 27 28 29 29 29 29 29 28 27 26 25 24 25 25 25 24 23 22 20 19 18 17 16 16 15 14 13 13 14
8 10 11 17 15 10 13 17 13 8 6 6 10 10 8 10 10 7 7 9 9 9 8 6 8 8 10 9 8 11 14 14 13 13 16 18 16 10 6 5 6 7 10 14 18 17 16 19 21 23 22 23 26 27 24 24 26 26 28 30 29 29 29 29 28 28 27 26 25 25 25 25 25 25 24 23 21 20 18 16 16 16 16 16 14 13
6 9 6 12 13 8 13 19 15 12 9 5 7 10 8 10 10 7 6 7 9 9 7 10 14 10 9 7 7 11 12 11 12 12 13 16 17 13 8 5 7 7 7 13 19 21 19 17 19 23 23 23 25 25 24 24 26 28 29 29 29 29 30 29 28 28 28 28 27 26 25 25 25 25 24 23 22 21 20 18 17 16 16 17 15 14
8 6 1 6 9 8 11 15 14 15 15 9 5 6 7 9 8 7 6 6 7 9 8 12 17 11 7 8 10 12 11 11 13 12 11 13 13 14 12 10 11 10 8 6 12 20 22 21 23 25 25 23 24 25 25 24 26 29 29 28 29 29 29 29 28 28 28 28 27 26 26 25 25 25 24 23 23 22 21 20 20 19 16 16 16 16
5 2 2 7 10 9 8 7 8 10 12 11 8 4 6 7 7 8 6 5 6 7 9 11 12 7 6 8 10 13 11 10 12 10 11 13 12 13 14 14 13 10 10 8 3 10 18 23 24 24 24 24 23 25 29 27 26 27 26 26 29 30 29 29 28 28 27 27 27 26 25 25 25 25 25 24 23 23 23 22 21 20 18 17 17 17
3 4 4 6 11 11 6 6 9 9 10 10 7 6 8 7 7 9 8 7 6 6 8 7 6 5 6 7 9 13 12 11 12 11 11 14 15 14 13 14 14 12 10 8 6 1 9 19 20 18 19 21 22 24 30 30 27 27 27 28 29 27 28 30 29 27 26 26 25 24 24 25 25 25 25 25 25 24 24 24 23 21 20 20 19 18
2 4 3 3 8 10 9 11 14 13 10 10 8 8 8 9 9 8 7 8 8 7 7 4 7 5 5 6 7 10 12 12 13 12 13 16 18 16 13 14 14 13 12 10 9 9 3 11 21 20 18 23 25 27 30 29 27 28 30 30 29 26 26 29 29 27 26 26 25 23 23 24 24 25 26 26 26 26 25 25 25 23 22 22 21 20
6 3 4 5 6 7 9 14 13 8 7 9 9 9 10 10 9 8 6 7 9 9 3 5 8 5 5 7 8 10 13 14 14 14 14 16 18 17 15 14 14 14 13 10 10 12 13 4 14 20 19 21 26 27 28 26 25 26 28 29 28 25 25 27 27 28 28 27 26 24 23 24 25 26 26 26 26 27 26 26 26 26 24 23 22 22
8 3 5 6 5 4 5 8 8 5 6 8 8 10 11 8 4 5 5 2 5 7 2 5 5 5 5 6 9 12 14 15 14 14 14 15 18 18 16 15 14 14 14 12 11 12 15 14 9 10 14 17 19 21 24 25 24 24 24 25 24 24 25 26 25 26 28 27 27 27 24 23 25 27 27 27 27 27 27 26 26 27 27 25 23 23
6 3 4 4 3 4 6 6 5 7 7 6 7 10 10 5 6 8 5 2 4 6 3 6 4 5 4 4 9 13 13 14 14 14 14 13 16 16 15 15 14 14 15 15 15 16 16 16 16 15 10 11 11 12 16 21 21 18 16 19 22 24 27 27 25 25 26 27 28 29 28 26 26 27 29 29 28 28 28 27 26 26 27 26 25 23
5 2 3 4 4 5 4 3 4 5 7 8 11 13 8 4 5 7 6 2 6 5 5 7 5 6 5 6 10 12 11 13 14 15 16 15 15 15 14 14 14 15 16 16 17 19 20 16 14 17 18 14 10 6 6 13 19 15 13 18 23 25 26 27 27 26 26 28 29 30 31 31 29 28 30 30 29 28 29 28 27 27 27 26 25 24
4 3 3 1 3 4 2 4 9 7 8 10 13 13 5 3 5 4 5 3 3 3 5 8 10 11 8 8 9 11 10 11 11 12 15 16 16 16 16 15 15 16 17 18 18 19 21 19 14 12 13 14 15 14 10 6 12 14 13 15 18 22 24 25 25 25 25 27 30 32 33 33 32 30 30 31 30 29 28 29 27 26 27 27 26 25
4 5 4 5 5 5 3 5 11 9 6 10 17 16 5 4 6 6 7 3 5 3 3 7 11 13 11 9 10 10 9 10 10 12 14 15 16 15 16 16 16 17 18 18 19 19 20 21 19 16 12 10 10 8 10 11 10 9 11 11 10 13 16 19 22 22 22 23 26 29 31 32 33 32 31 30 31 31 28 28 28 28 27 26 26 26
4 5 3 5 9 9 4 6 9 9 10 12 19 17 5 5 7 9 12 6 5 2 5 9 10 11 10 11 12 11 9 11 12 12 12 14 16 15 15 16 16 17 18 18 19 19 19 19 20 20 18 16 15 7 4 8 11 10 9 10 9 7 7 11 15 18 18 19 21 24 27 30 32 32 32 29 28 31 31 29 27 27 27 27 26 25
3 3 4 6 7 8 7 7 8 7 9 9 5 6 3 6 8 9 11 5 4 5 10 11 10 9 5 6 11 12 12 12 12 12 12 12 14 13 13 14 16 17 18 18 18 18 18 19 19 20 20 20 20 16 7 7 9 6 4 6 9 8 6 5 7 12 15 17 18 19 23 28 32 32 32 30 25 24 28 30 28 25 26 26 25 24
2 2 4 7 8 6 6 6 8 8 7 6 1 5 1 8 7 5 6 2 4 8 11 10 11 9 3 5 12 15 14 13 11 12 12 11 12 12 12 13 15 16 17 17 18 17 17 18 18 19 20 19 19 19 14 7 9 8 2 2 6 7 6 6 4 8 12 14 16 17 19 23 28 29 29 29 28 21 17 21 25 24 24 25 24 23
2 2 1 3 6 6 6 7 9 8 7 9 8 5 5 8 7 6 6 2 2 6 12 11 8 6 5 7 13 15 14 13 11 10 11 11 11 12 12 12 13 15 16 16 17 17 17 18 18 18 19 19 19 18 15 11 3 2 1 3 1 5 5 4 5 7 9 10 12 14 16 19 22 24 22 22 24 21 17 18 19 20 19 21 23 23
2 3 3 3 5 8 7 7 5 6 6 8 9 9 9 8 8 9 7 1 6 4 8 10 7 6 8 10 12 11 12 13 12 10 10 10 11 11 11 12 13 14 15 15 16 17 16 17 17 17 18 19 18 17 15 14 10 5 4 6 4 2 4 4 4 6 8 9 10 11 14 16 18 21 20 17 18 21 21 20 21 21 19 19 21 23
2 3 4 3 4 8 4 4 0 5 6 2 3 3 6 7 7 8 6 4 4 6 4 9 11 10 10 10 11 10 11 14 14 12 10 8 9 10 10 11 12 13 14 15 15 16 16 16 16 16 17 17 17 16 15 15 14 10 8 8 9 6 4 4 5 6 7 10 12 13 13 14 16 19 22 20 19 19 19 20 23 26 26 25 26 26
2 3 4 3 5 7 2 4 3 6 3 3 7 7 5 3 1 2 3 3 5 6 8 11 14 12 9 11 15 15 14 15 13 11 10 8 7 9 9 10 11 12 13 14 14 15 15 15 15 15 15 15 16 15 14 15 14 13 12 12 13 12 9 6 6 6 6 8 11 13 15 16 16 18 20 21 21 20 19 19 21 24 27 29 29 29
3 3 4 3 4 6 4 4 4 2 3 6 7 6 4 3 2 2 2 2 3 5 8 9 10 10 11 13 15 14 15 18 17 13 10 8 6 6 9 10 11 11 12 12 13 14 14 13 14 14 14 14 14 14 14 15 15 14 14 15 14 14 13 11 8 6 6 7 9 12 15 17 18 16 16 17 18 18 18 18 20 23 24 26 27 27
4 4 3 3 4 5 6 5 3 2 4 5 5 4 3 3 2 0 2 3 3 5 9 8 7 10 12 11 11 11 9 12 15 13 11 10 8 6 7 8 9 10 10 11 11 12 13 12 12 13 12 13 14 14 13 14 14 14 14 14 14 14 14 15 13 10 7 5 6 9 11 14 16 16 15 15 16 16 16 16 19 21 23 24 25 25
4 3 3 3 3 4 6 5 4 5 4 3 7 7 6 5 5 4 1 3 4 6 10 10 7 8 9 8 9 8 4 3 6 9 10 9 8 8 8 7 7 8 9 9 10 11 11 11 10 11 12 12 12 13 12 12 12 13 14 14 13 13 14 15 15 14 13 11 6 6 8 10 13 13 14 15 16 15 14 14 17 20 22 24 25 24
5 4 3 4 4 5 6 6 5 4 2 2 7 8 6 5 5 1 3 5 4 5 9 11 10 9 6 5 6 7 3 3 4 8 9 6 5 7 7 7 7 7 8 9 9 10 10 10 10 10 11 11 12 11 10 11 11 12 14 14 13 13 14 15 16 16 15 14 10 7 7 8 10 11 12 14 14 14 13 13 15 17 20 23 24 24
5 4 4 5 6 6 6 6 3 1 3 4 6 7 6 5 2 3 5 4 5 6 6 4 9 11 7 3 2 3 3 2 2 6 7 6 5 5 6 6 7 7 8 9 10 9 9 8 9 10 10 11 12 11 10 10 10 11 14 15 14 14 14 15 17 16 14 14 12 10 8 7 8 8 9 11 12 13 13 13 14 15 17 20 22 23
4 5 5 6 7 7 7 7 2 3 5 6 6 7 6 3 1 4 3 2 5 8 7 4 1 9 10 6 2 2 4 6 6 4 3 3 5 5 5 5 6 7 8 9 10 9 8 8 8 10 10 10 11 10 10 10 9 11 14 14 13 13 14 16 18 16 14 13 12 11 11 9 8 8 8 8 10 12 13 14 15 16 17 18 19 21
4 4 5 6 7 6 5 5 3 3 4 6 8 7 3 1 1 2 3 4 6 9 7 5 6 4 9 10 6 2 4 7 6 3 2 4 5 5 5 6 7 7 8 9 9 9 9 8 9 9 9 10 10 10 10 10 9 13 16 14 12 13 15 18 20 18 15 13 12 14 14 12 11 11 11 11 11 10 9 10 13 16 19 20 20 20
3 3 5 6 6 5 6 6 3 2 4 6 6 3 2 1 2 5 6 7 9 8 7 6 9 7 4 7 7 3 1 1 4 4 4 4 5 5 6 7 7 8 9 9 10 10 10 9 9 10 10 10 10 10 10 10 11 13 14 13 12 14 16 19 20 19 18 15 14 15 17 16 14 13 13 14 14 12 10 11 11 13 16 19 20 19
4 4 5 3 3 4 5 4 2 3 7 6 3 4 7 7 5 5 6 7 5 3 4 2 2 3 2 4 5 4 4 3 3 5 5 4 5 6 6 7 8 9 9 10 11 11 11 11 11 11 11 10 10 10 11 12 13 13 12 12 12 15 17 18 17 16 17 18 18 19 18 17 17 17 17 17 14 13 14 15 13 12 12 13 14 15
3 2 2 2 2 4 2 0 2 5 8 7 5 8 10 9 6 4 4 4 3 3 4 4 5 4 4 6 6 5 7 7 5 6 5 4 5 6 7 8 8 10 10 10 11 12 12 12 13 12 12 11 11 11 11 11 12 12 12 13 15 16 16 16 13 12 14 19 23 23 20 19 18 16 14 15 15 12 12 11 11 11 12 12 10 9
4 2 1 2 3 4 3 4 5 6 8 7 4 6 7 5 5 5 3 3 3 3 3 1 0 2 2 3 7 8 9 8 5 6 6 6 7 7 7 8 8 9 11 11 13 14 15 14 13 13 13 13 12 12 11 11 11 12 13 15 15 14 13 13 13 14 17 21 23 23 22 23 21 16 12 14 16 14 11 9 8 10 12 12 8 7
8 8 6 4 4 4 4 6 8 8 8 7 6 7 7 5 4 4 4 3 2 1 1 1 3 3 4 2 3 5 4 4 5 8 8 8 9 8 7 8 9 10 12 13 14 15 15 15 15 15 15 16 15 14 13 13 12 12 13 14 14 13 15 18 19 20 20 20 21 22 23 24 24 21 18 15 13 11 11 11 12 13 13 12 8 6
2 5 5 5 5 5 4 3 5 6 6 6 6 7 8 9 8 7 6 5 4 2 2 0 1 0 1 0 3 3 3 5 8 9 9 9 9 9 9 9 10 11 12 13 14 15 15 15 16 16 17 17 17 16 15 14 14 14 14 15 16 17 18 18 19 21 21 20 20 23 23 22 22 22 18 12 8 8 10 12 13 14 14 14 12 10
3 1 3 4 5 6 7 6 6 8 8 8 8 8 6 6 8 9 8 8 7 5 4 2 2 2 2 2 3 3 4 6 7 9 9 9 10 10 10 11 11 11 12 13 14 14 15 15 16 16 17 18 18 17 17 16 16 15 15 16 17 18 19 19 18 19 20 20 19 19 18 17 17 15 12 10 10 11 11 12 13 14 16 16 15 16
1 2 4 4 5 4 3 4 3 3 4 3 3 6 6 5 6 7 8 9 8 7 6 6 6 5 4 3 3 4 6 7 7 8 9 10 11 11 11 12 13 13 13 13 14 14 14 15 16 16 17 18 18 18 18 17 16 15 15 16 17 18 18 18 18 18 17 16 15 15 14 14 13 12 13 15 15 15 16 18 19 20 21 22 21 21
2 0 2 3 5 6 5 6 6 4 1 1 2 1 3 5 7 9 9 9 9 9 9 9 9 8 7 8 9 9 9 8 7 7 8 10 11 12 13 13 14 14 15 15 15 15 15 15 15 16 16 17 17 17 18 18 18 17 17 17 17 17 18 19 20 20 18 15 14 14 15 16 16 17 18 19 19 19 22 24 24 24 23 23 23 23
Wind_Direction
202 210 215 216 227 221 218 227 237 246 250 258 254 238 230 217 207 185 171 171 162 154 176 177 161 149 141 151 178 175 168 173 164 167 192 204 225 219 201 189 176 175 178 175 176 173 171 171 168 169 168 167 165 166 167 162 166 165 161 171 169 167 178 175 168 165 163 156 151 159 160 152 155 157 151 149 159 165 158 154 150 149 152 150 150 148
205 220 224 216 227 231 228 227 234 248 254 260 265 268 262 237 189 152 156 172 162 151 166 171 167 159 144 150 174 174 167 177 173 173 191 201 217 210 202 201 181 175 176 176 177 174 172 172 169 170 171 171 168 168 168 165 168 167 166 172 168 172 181 175 172 168 164 162 158 162 163 159 164 162 151 154 171 169 159 158 153 152 154 151 152 148
206 224 228 221 225 232 239 234 230 242 248 255 264 266 273 260 196 151 149 169 178 156 156 175 175 158 151 152 163 174 176 183 179 178 189 193 202 203 212 222 196 178 177 176 178 176 174 174 170 171 173 174 171 170 170 169 170 168 172 175 168 176 181 173 175 170 167 167 159 161 164 163 167 159 155 166 174 168 163 160 156 155 153 153 152 146
206 221 226 227 227 225 238 239 229 237 241 251 257 250 267 261 206 162 161 170 175 170 168 181 189 159 154 156 160 172 178 183 176 170 178 189 198 200 209 222 207 182 179 178 179 178 176 175 172 172 175 175 173 173 173 173 172 170 179 180 170 178 180 173 176 173 171 167 159 165 169 171 168 160 170 176 166 165 170 164 158 158 155 154 151 146
223 218 215 224 233 224 232 237 230 235 232 237 244 240 245 234 199 186 183 177 178 189 176 172 184 162 158 160 160 163 167 175 173 163 171 191 201 197 195 213 213 191 183 182 181 180 178 177 175 174 175 177 175 176 176 176 176 173 183 185 175 177 178 176 178 175 174 170 163 169 173 173 164 162 179 176 165 172 172 165 161 158 158 155 150 150
232 224 211 213 227 227 229 234 227 228 227 227 231 238 243 218 185 195 202 191 195 204 183 173 175 163 169 164 157 158 160 168 173 174 182 193 198 196 195 205 208 198 188 185 183 182 181 178 176 175 176 179 178 179 179 178 179 176 184 188 179 178 178 179 181 176 180 176 167 169 172 172 166 167 176 170 171 172 161 167 168 158 160 157 151 152
231 231 224 212 217 222 226 231 224 222 227 227 215 226 248 252 210 201 202 200 224 226 189 193 205 152 165 168 163 166 158 156 168 176 182 190 195 197 200 201 199 195 190 191 189 185 183 180 178 178 178 181 180 180 180 179 180 180 187 188 182 182 179 181 183 178 183 181 171 171 172 170 169 170 170 165 168 161 158 175 176 164 164 157 152 154
226 232 232 216 216 218 216 224 224 220 224 236 221 211 233 250 244 235 228 210 240 255 197 196 209 168 157 178 179 168 150 149 167 177 176 186 196 198 201 203 198 193 190 192 193 189 184 182 181 180 181 184 182 180 180 181 181 184 192 190 184 186 181 182 186 182 185 185 176 174 174 173 171 171 173 167 165 165 171 179 174 173 167 155 159 163
212 232 232 209 222 228 207 218 225 219 221 234 240 227 225 232 237 252 245 213 232 254 215 194 206 189 141 169 178 156 143 155 169 177 180 186 195 198 201 206 205 200 194 192 193 191 186 184 184 183 184 185 183 181 181 182 182 186 195 192 187 188 184 184 190 186 188 188 181 178 178 178 173 173 177 168 164 171 176 172 167 175 171 161 169 171
197 226 233 205 218 232 194 218 228 222 221 228 245 258 243 216 209 233 240 219 234 255 243 207 202 188 128 153 169 148 148 163 166 172 182 184 188 193 195 200 207 206 198 192 193 193 188 186 186 184 186 187 185 183 182 182 182 184 193 195 192 190 187 188 191 191 191 190 186 183 181 181 175 175 178 170 170 175 174 171 169 177 178 169 173 170
205 216 229 202 208 233 217 222 228 227 228 227 236 264 261 209 192 216 223 224 238 242 244 231 214 197 168 162 169 151 149 162 162 165 184 189 190 191 189 193 201 201 197 196 197 197 192 188 186 185 187 189 187 183 182 184 183 182 190 197 195 192 191 192 192 193 194 193 192 188 185 185 178 178 180 176 179 179 177 177 175 180 182 174 174 170
223 219 213 183 206 232 232 225 225 227 226 230 225 222 236 214 202 222 219 232 240 233 239 239 232 227 209 156 149 138 134 145 153 163 180 192 192 190 188 191 198 198 197 198 198 199 196 191 189 189 189 190 189 186 183 185 185 184 191 197 196 193 194 195 194 195 195 195 196 193 190 190 184 180 182 184 187 186 182 180 177 178 179 176 172 170
234 238 204 188 211 225 234 221 212 220 216 229 230 208 210 203 197 222 220 223 226 231 240 234 229 230 68 96 123 127 128 131 138 156 169 179 182 187 190 189 192 196 199 201 203 203 199 194 193 192 192 193 193 190 186 187 187 186 191 197 197 194 195 198 196 194 196 198 200 199 194 194 192 187 187 190 193 193 188 183 182 181 178 178 173 176
216 230 210 198 199 216 239 231 195 202 203 215 223 208 208 200 195 212 217 219 219 227 239 234 221 178 107 103 120 123 125 130 139 148 157 170 173 180 190 186 187 194 198 200 203 204 200 196 195 194 195 195 196 195 190 190 190 188 191 198 199 197 196 199 199 196 198 200 201 202 199 198 197 194 197 198 195 196 194 189 190 186 180 180 176 182
211 213 209 210 196 197 233 251 229 205 196 204 223 222 211 209 217 214 207 217 223 221 225 228 219 153 132 134 131 132 131 132 141 146 146 149 147 161 186 194 194 194 195 196 200 203 200 197 196 196 196 197 199 199 193 192 194 191 193 199 200 199 197 200 201 198 199 201 202 204 203 202 201 197 200 204 199 198 198 196 196 189 187 189 182 183
238 227 205 208 209 189 206 243 250 229 204 194 219 237 219 208 227 231 216 223 226 220 215 213 164 97 123 132 127 130 130 130 132 128 123 120 121 144 178 193 196 190 183 188 194 198 199 199 199 199 199 200 202 202 197 194 196 194 195 201 202 201 201 201 202 201 201 202 203 204 205 205 204 201 201 203 203 202 200 202 200 190 191 198 190 186
256 257 222 196 201 198 202 226 235 222 218 199 207 230 229 218 234 243 229 230 229 226 212 159 103 105 132 135 130 122 116 120 118 107 107 115 122 127 144 160 159 168 184 194 192 188 192 200 205 205 204 204 204 206 204 201 199 194 195 201 204 204 203 203 204 204 204 204 204 205 206 207 208 206 204 203 205 203 201 204 204 196 195 198 192 193
274 275 238 176 186 205 211 224 225 206 217 249 211 206 219 235 249 265 249 233 221 224 214 143 129 144 149 138 142 126 110 110 110 101 97 106 119 126 129 119 99 113 172 202 203 197 192 197 206 207 204 205 206 207 208 210 208 201 197 201 204 205 206 206 206 205 205 205 206 207 207 207 210 211 207 205 206 203 200 203 204 202 205 200 191 193
290 286 284 175 193 194 198 222 230 204 205 243 244 194 216 235 235 242 251 244 222 224 220 158 144 155 156 144 149 135 119 110 105 102 96 94 104 112 113 105 89 79 86 139 193 200 199 201 205 205 203 203 204 205 207 212 211 203 198 201 205 206 207 207 206 205 206 207 207 208 210 208 210 212 209 205 206 203 199 203 204 201 208 208 196 192
306 265 240 237 219 198 181 211 232 205 206 244 269 245 243 247 235 226 222 241 245 233 218 171 143 138 136 141 140 125 118 114 106 100 96 93 86 80 82 89 91 73 58 67 142 199 206 210 209 208 210 207 205 209 212 213 213 208 204 204 206 207 208 208 205 204 206 208 207 209 213 212 211 213 211 206 207 205 200 203 205 201 203 207 203 199
260 227 229 228 219 211 185 192 219 212 207 228 242 231 225 226 242 238 214 218 245 247 227 186 130 99 111 130 129 119 115 111 107 103 98 97 88 73 63 69 79 83 74 58 33 10 221 220 211 203 205 206 209 217 218 215 214 213 212 211 208 207 209 210 206 202 204 208 206 208 214 215 213 214 212 207 207 208 203 202 204 202 201 203 204 205
252 255 281 240 217 213 198 200 217 224 222 221 219 220 216 212 226 233 219 218 230 254 255 179 129 111 113 128 129 120 112 103 104 107 104 101 94 86 75 63 64 76 84 75 54 47 42 221 212 203 197 199 206 214 217 217 214 210 209 211 211 214 217 216 210 203 204 206 204 207 216 219 216 215 212 209 209 209 207 205 203 202 202 203 204 205
2 295 292 279 239 224 207 196 201 224 265 260 241 224 215 217 223 217 217 225 223 232 248 109 121 124 128 141 133 115 106 106 108 105 101 99 95 92 89 81 72 73 80 79 72 61 53 80 203 207 205 200 201 206 210 215 217 212 210 211 212 216 221 222 217 209 208 209 205 204 211 218 220 218 214 211 211 211 210 210 207 203 202 202 204 204
346 254 253 291 302 279 219 183 184 227 270 271 253 231 217 221 268 262 245 273 253 236 166 96 122 134 137 136 122 116 114 114 111 102 100 100 97 94 91 86 81 79 82 80 73 64 60 72 115 176 201 204 206 211 211 212 213 212 213 213 211 213 217 220 219 214 214 216 212 208 210 215 219 220 216 212 213 213 211 212 210 206 204 201 203 206
328 234 220 267 287 245 209 182 201 233 245 248 236 228 225 238 335 329 322 13 295 284 45 80 114 128 145 148 127 129 124 115 109 101 96 92 89 90 91 90 86 78 79 78 70 63 67 79 84 89 123 171 194 212 217 216 211 206 208 209 206 211 217 219 219 216 215 219 219 218 218 220 221 222 219 214 213 214 213 211 211 210 209 204 203 208
314 276 246 249 243 237 210 202 250 237 226 235 227 218 220 256 311 327 334 307 264 287 52 91 125 127 155 173 145 137 121 110 111 110 105 96 89 87 86 88 86 78 72 70 67 65 70 80 79 76 85 97 105 124 189 218 216 212 213 213 213 219 221 220 221 221 221 224 225 223 221 223 223 223 222 217 214 215 214 212 212 210 212 209 204 207
309 286 280 270 273 297 314 291 296 271 219 226 229 216 212 307 311 314 300 298 312 333 65 104 136 141 163 182 148 132 123 114 112 110 104 96 91 90 88 85 85 81 74 68 66 66 69 73 71 69 76 77 78 90 104 157 208 218 220 218 222 231 231 228 227 227 227 228 228 225 222 222 222 222 225 222 217 216 215 213 213 211 212 212 208 207
303 258 213 184 231 283 318 292 298 298 271 249 233 217 215 298 306 302 268 280 22 1 107 124 146 149 158 169 140 124 125 121 114 108 105 101 96 92 90 87 83 80 77 72 69 66 65 69 66 62 65 59 57 82 108 111 130 173 197 202 215 232 237 236 234 234 234 235 234 231 225 220 220 226 235 231 222 220 218 214 215 214 215 216 212 210
301 268 236 210 224 232 251 286 289 302 320 285 234 209 200 270 266 267 259 269 357 3 137 141 155 147 146 151 137 131 127 113 102 98 102 110 105 91 84 83 79 78 76 72 70 67 64 65 65 64 65 60 56 66 146 136 118 123 154 180 188 199 218 228 232 232 235 238 238 234 228 221 221 238 255 252 234 224 221 218 217 215 216 219 217 215
302 302 338 316 270 226 223 273 281 284 322 322 237 163 73 297 268 258 258 276 34 110 136 141 135 115 125 144 124 123 121 109 102 96 90 96 98 88 81 79 75 75 74 69 69 69 65 64 63 63 65 64 65 69 91 163 170 153 134 162 170 164 160 175 215 227 229 234 232 229 230 226 226 242 261 266 257 239 224 220 221 218 217 219 220 219
312 342 357 322 299 252 219 249 271 273 298 314 266 125 148 278 280 279 272 306 98 138 144 141 123 107 156 174 124 116 114 109 108 99 86 84 92 89 80 74 72 72 71 67 66 65 63 62 59 59 61 62 64 65 69 111 179 198 199 174 179 171 154 139 168 213 225 236 238 234 235 233 231 239 252 260 265 262 245 232 227 222 222 222 221 220
277 297 323 278 278 262 220 219 247 262 277 278 259 207 214 254 265 256 240 247 246 182 156 143 130 134 190 170 129 121 120 117 114 99 82 76 82 83 78 75 72 69 67 65 63 61 59 57 54 54 55 57 61 62 61 64 89 202 43 31 213 207 202 180 181 200 213 230 239 241 244 243 239 239 245 255 256 252 258 263 245 228 225 225 224 224
277 298 280 238 257 258 223 200 239 259 253 265 262 232 218 231 248 242 215 166 344 300 171 156 148 160 179 163 140 136 130 119 116 110 94 82 81 80 75 74 73 70 67 64 61 58 57 55 53 52 49 49 53 55 56 57 49 15 2 16 8 279 248 248 234 226 227 233 241 245 246 246 242 239 242 253 250 240 245 252 244 236 233 225 223 226
262 289 282 263 262 262 220 127 59 258 232 252 328 258 214 209 235 246 213 141 43 20 98 142 146 157 171 155 133 129 121 110 110 112 107 95 88 85 77 70 71 71 68 65 61 56 55 53 53 53 49 46 49 48 46 54 54 33 11 19 23 4 322 298 284 264 252 247 245 247 248 246 244 241 242 247 249 245 245 239 231 231 231 226 222 221
252 240 257 266 263 264 240 122 209 245 223 77 50 44 52 59 23 0 44 87 98 84 98 131 147 155 152 120 107 109 112 110 108 108 109 102 84 79 80 76 71 67 65 65 61 55 52 50 49 50 50 46 47 46 37 41 50 41 26 33 32 17 6 354 322 297 283 268 250 246 249 251 249 245 245 249 252 249 249 245 234 229 228 230 232 229
297 272 258 248 250 264 253 210 220 227 114 99 76 55 48 47 61 93 83 50 85 112 119 128 138 145 141 127 120 124 128 120 113 108 108 111 97 73 70 69 68 66 62 62 61 54 48 47 45 45 48 47 45 46 37 31 38 39 33 37 34 20 19 25 14 346 317 293 267 253 251 252 253 251 248 253 258 253 248 244 239 234 232 233 236 237
296 314 296 250 227 241 242 223 203 187 169 147 112 69 61 79 65 8 218 190 156 147 138 130 134 147 152 148 139 146 151 130 117 111 109 114 117 103 78 64 63 64 60 59 60 51 41 42 42 39 41 43 42 44 38 26 28 35 34 34 31 20 19 27 31 28 16 346 292 272 267 259 254 250 247 251 257 256 250 244 239 235 235 238 240 240
267 280 313 300 252 240 249 238 204 206 220 166 122 99 76 70 53 15 307 178 166 157 149 149 158 161 168 174 153 143 169 176 128 112 102 100 100 95 84 65 56 56 54 54 54 44 33 33 35 32 33 36 36 39 38 27 21 26 31 31 29 21 12 14 23 27 25 23 358 311 302 283 263 250 243 246 254 257 255 248 241 234 229 233 240 242
258 255 270 276 258 247 254 250 223 209 228 104 109 106 93 82 73 40 231 194 170 154 153 164 175 170 173 192 161 143 180 231 157 120 107 93 77 71 65 55 48 44 42 44 42 34 27 26 27 25 24 26 27 28 32 27 13 10 20 23 22 20 10 3 10 16 18 23 19 354 333 309 285 265 248 246 249 253 255 251 247 243 236 232 235 239
240 242 234 238 245 241 239 244 243 117 111 125 116 105 99 87 81 215 210 172 139 132 128 159 185 173 149 73 84 161 216 254 127 121 117 97 68 53 42 40 40 34 31 30 27 24 23 23 21 18 13 15 20 18 17 21 11 0 8 12 8 8 4 357 0 4 5 11 14 4 350 330 305 283 264 258 255 252 255 257 253 250 247 242 239 237
224 224 225 233 237 229 230 239 234 88 106 133 124 99 88 79 235 217 184 90 92 109 93 37 179 163 146 112 70 196 149 117 105 118 132 80 49 31 14 16 23 23 19 16 18 21 22 17 12 9 7 8 11 6 4 10 360 342 351 0 358 354 351 348 351 355 353 355 357 353 349 341 319 294 277 273 266 256 255 259 260 258 256 254 252 247
233 226 226 236 244 241 241 245 220 128 123 130 117 95 62 299 230 135 106 70 72 97 102 44 25 99 148 151 156 171 120 107 92 65 30 18 9 359 357 0 5 8 6 8 13 15 13 12 7 2 0 357 355 354 357 359 344 333 341 350 347 341 337 338 343 345 345 347 350 348 345 341 328 305 286 280 272 261 260 264 263 263 261 258 259 260
239 246 237 231 242 249 240 240 241 151 132 133 128 101 28 3 129 124 113 82 64 81 104 67 37 41 109 159 175 204 262 30 29 10 356 346 335 336 350 359 360 358 356 358 2 1 1 2 357 352 349 346 343 344 343 337 328 331 339 341 336 330 329 335 340 339 336 338 344 345 342 340 340 332 317 303 283 268 283 298 280 263 261 260 259 260
223 238 258 247 244 258 246 239 251 152 138 131 120 90 79 81 101 123 117 96 73 93 124 96 39 69 115 204 228 253 256 261 342 330 300 300 317 327 342 351 353 352 351 351 352 352 351 349 344 343 341 340 340 338 331 324 323 329 336 333 325 322 326 334 340 337 329 325 327 335 341 341 342 343 342 335 312 282 288 305 295 268 256 259 259 258
215 215 308 306 279 295 300 142 141 157 148 126 89 91 98 102 110 107 107 121 149 180 175 196 207 172 168 219 237 264 262 255 284 292 271 276 304 318 333 342 343 344 343 345 346 340 336 336 338 338 335 332 334 332 329 328 326 323 319 313 313 322 329 334 334 323 312 312 318 326 331 331 336 342 340 337 330 309 295 303 308 290 267 258 260 267
223 209 310 291 270 276 254 194 171 166 161 154 137 117 112 119 134 138 163 183 190 221 240 270 352 51 35 228 211 222 241 247 267 279 274 282 292 303 322 329 334 339 339 340 340 334 329 329 332 331 327 325 327 326 325 324 322 318 314 311 314 322 322 311 301 297 300 308 314 318 318 319 326 331 323 316 321 322 311 299 309 309 289 273 273 292
220 212 213 236 246 244 221 187 180 187 186 182 179 159 143 149 155 155 182 183 153 182 236 0 14 21 21 28 188 210 237 253 272 277 272 273 282 297 316 322 330 336 335 336 337 334 332 331 328 326 324 321 322 324 321 319 318 318 316 313 311 308 302 297 298 300 304 308 309 308 311 315 317 319 321 320 319 319 312 299 295 295 291 288 292 312
208 203 213 222 225 239 247 205 182 199 206 205 203 180 163 169 175 174 182 179 151 135 159 125 343 300 338 215 184 201 249 258 263 271 272 277 290 302 311 317 324 328 328 331 332 331 331 329 325 324 323 321 322 323 321 319 316 315 314 312 310 308 306 306 305 304 305 307 307 307 311 314 316 320 325 324 309 300 299 297 294 288 285 286 286 286
69 161 257 253 236 242 256 253 234 219 213 216 221 219 211 197 188 184 184 180 175 174 179 183 189 194 213 209 188 201 243 258 270 280 283 286 292 297 304 311 316 320 323 325 326 327 327 325 322 321 319 319 319 320 319 318 317 317 316 314 313 312 312 312 309 307 307 308 308 310 312 312 314 317 312 295 293 298 295 287 281 278 277 278 276 273
299 267 296 289 252 257 319 339 320 262 227 228 233 229 237 247 230 210 196 190 193 193 188 192 201 199 191 191 202 218 229 237 250 265 272 279 287 295 303 308 311 316 320 320 321 323 323 320 319 318 317 318 319 319 319 318 316 315 315 313 313 313 313 311 309 308 309 309 306 304 304 302 299 291 284 284 289 290 286 281 281 282 284 285 282 280
39 282 342 317 262 276 330 8 18 13 347 3 11 293 244 237 232 227 218 210 208 203 199 204 209 208 205 208 212 216 221 230 247 268 276 280 288 295 300 304 309 313 315 318 319 320 319 319 319 318 317 318 318 317 316 315 314 313 312 311 310 309 307 304 301 299 300 301 300 296 295 295 293 287 284 286 288 288 288 289 290 292 294 293 291 290
Height
1482 1486 1487 1487 1484 1479 1477 1475 1474 1470 1466 1464 1461 1460 1462 1466 1468 1468 1472 1472 1474 1491 1498 1496 1500 1503 1507 1510 1506 1508 1512 1514 1517 1517 1518 1521 1522 1520 1519 1520 1522 1525 1528 1530 1532 1534 1536 1538 1540 1542 1544 1546 1547 1548 1549 1551 1552 1554 1555 1556 1557 1559 1560 1560 1562 1563 1565 1567 1569 1571 1572 1574 1575 1576 1578 1579 1580 1580 1581 1582 1583 1584 1585 1586 1588 1589
1481 1486 1483 1479 1477 1473 1471 1470 1471 1470 1468 1467 1465 1463 1461 1461 1463 1464 1470 1469 1468 1486 1497 1493 1499 1501 1502 1508 1506 1506 1510 1512 1514 1516 1519 1520 1521 1521 1519 1520 1523 1524 1527 1529 1531 1533 1535 1538 1539 1542 1544 1545 1547 1548 1549 1550 1552 1553 1554 1555 1556 1558 1559 1560 1561 1563 1565 1566 1568 1570 1571 1573 1575 1576 1577 1578 1579 1580 1581 1582 1583 1584 1585 1586 1587 1588
1483 1484 1478 1472 1470 1469 1469 1467 1469 1471 1470 1470 1467 1467 1468 1461 1460 1464 1470 1470 1467 1482 1495 1493 1498 1501 1500 1503 1504 1504 1507 1509 1512 1515 1518 1520 1523 1525 1523 1524 1524 1524 1525 1527 1530 1532 1534 1537 1538 1541 1543 1545 1546 1547 1548 1550 1551 1552 1554 1554 1555 1557 1558 1559 1561 1562 1564 1566 1568 1570 1571 1573 1574 1575 1577 1577 1578 1580 1580 1581 1582 1583 1584 1585 1586 1588
1483 1480 1472 1467 1466 1469 1471 1467 1468 1471 1470 1471 1469 1471 1473 1462 1463 1474 1473 1469 1468 1476 1488 1492 1494 1497 1500 1503 1503 1505 1506 1507 1511 1515 1517 1519 1521 1524 1525 1525 1524 1523 1524 1526 1528 1530 1533 1535 1537 1540 1542 1544 1546 1547 1548 1549 1550 1552 1552 1553 1555 1556 1557 1559 1560 1562 1564 1565 1568 1570 1571 1572 1573 1575 1576 1577 1578 1579 1580 1581 1581 1583 1584 1585 1586 1587
1476 1470 1465 1465 1466 1467 1471 1469 1467 1472 1473 1471 1468 1470 1471 1462 1464 1473 1470 1465 1468 1473 1478 1489 1500 1499 1499 1506 1505 1505 1508 1508 1511 1514 1516 1517 1518 1520 1523 1525 1524 1523 1524 1525 1526 1529 1531 1534 1536 1538 1541 1543 1545 1546 1547 1548 1550 1551 1551 1552 1554 1555 1557 1558 1560 1561 1563 1565 1567 1568 1570 1571 1573 1574 1575 1576 1577 1578 1579 1580 1581 1582 1583 1584 1585 1587
1469 1462 1460 1465 1467 1466 1470 1470 1468 1472 1475 1472 1468 1464 1462 1461 1464 1469 1468 1469 1478 1483 1474 1483 1511 1512 1498 1501 1505 1504 1507 1509 1510 1512 1515 1516 1517 1519 1522 1525 1525 1523 1522 1523 1525 1527 1530 1532 1535 1537 1540 1542 1543 1545 1546 1548 1549 1550 1550 1551 1553 1555 1556 1558 1559 1561 1562 1564 1566 1567 1568 1570 1572 1573 1574 1575 1576 1577 1579 1580 1580 1581 1583 1584 1585 1586
1464 1458 1457 1462 1466 1466 1469 1470 1466 1467 1474 1475 1465 1459 1458 1458 1462 1465 1468 1475 1485 1485 1469 1468 1499 1515 1507 1502 1500 1499 1505 1509 1510 1511 1513 1514 1516 1517 1519 1521 1522 1520 1521 1522 1524 1526 1528 1531 1533 1536 1538 1540 1542 1544 1545 1547 1549 1549 1550 1551 1552 1554 1556 1557 1559 1560 1562 1563 1565 1567 1568 1570 1571 1572 1574 1575 1576 1577 1578 1579 1580 1581 1582 1583 1584 1585
1460 1460 1459 1459 1463 1466 1469 1470 1464 1462 1472 1474 1459 1455 1460 1459 1462 1465 1467 1476 1478 1473 1467 1463 1476 1501 1515 1509 1494 1492 1502 1510 1511 1510 1510 1511 1513 1515 1516 1517 1518 1519 1520 1521 1523 1524 1526 1529 1532 1534 1536 1538 1540 1542 1544 1546 1548 1548 1548 1550 1551 1553 1555 1557 1558 1559 1561 1563 1565 1566 1568 1569 1571 1572 1573 1574 1576 1577 1577 1579 1580 1580 1581 1582 1583 1585
1458 1462 1460 1459 1465 1465 1464 1466 1461 1460 1470 1469 1454 1452 1457 1457 1461 1463 1466 1474 1472 1471 1478 1471 1466 1489 1512 1504 1489 1492 1503 1511 1512 1509 1508 1508 1510 1512 1514 1516 1517 1519 1520 1520 1522 1523 1525 1528 1530 1533 1535 1537 1539 1541 1543 1545 1546 1547 1547 1549 1551 1552 1554 1556 1557 1559 1560 1562 1564 1566 1568 1569 1571 1572 1573 1574 1575 1577 1577 1578 1579 1580 1581 1582 1583 1584
1454 1457 1455 1456 1464 1464 1462 1462 1458 1460 1466 1461 1454 1453 1451 1452 1458 1463 1470 1472 1473 1481 1487 1475 1465 1487 1512 1504 1491 1498 1506 1509 1509 1507 1506 1506 1508 1511 1514 1515 1517 1519 1520 1520 1521 1522 1524 1527 1529 1532 1534 1536 1538 1540 1542 1544 1545 1546 1546 1548 1550 1551 1553 1555 1557 1558 1560 1562 1564 1565 1567 1568 1570 1571 1572 1574 1575 1576 1576 1577 1578 1579 1580 1581 1582 1583
1447 1450 1450 1453 1461 1461 1460 1460 1456 1456 1458 1455 1457 1460 1455 1454 1459 1465 1469 1471 1483 1494 1486 1472 1462 1476 1507 1507 1492 1496 1500 1500 1504 1506 1506 1505 1506 1509 1512 1514 1516 1518 1518 1518 1520 1521 1524 1526 1528 1531 1533 1535 1537 1539 1541 1543 1544 1545 1545 1547 1548 1550 1552 1553 1555 1558 1559 1561 1563 1565 1566 1567 1569 1570 1572 1573 1574 1575 1576 1576 1577 1578 1579 1580 1581 1582
1449 1451 1450 1452 1459 1459 1459 1460 1456 1453 1454 1457 1460 1464 1468 1470 1469 1474 1476 1479 1498 1502 1482 1469 1461 1466 1492 1500 1490 1489 1490 1490 1497 1501 1503 1503 1504 1506 1508 1512 1514 1515 1517 1518 1520 1521 1523 1526 1527 1530 1532 1534 1536 1537 1540 1542 1543 1544 1545 1546 1547 1549 1551 1552 1554 1556 1558 1560 1562 1564 1565 1567 1568 1570 1571 1572 1573 1573 1575 1576 1577 1578 1579 1580 1580 1581
1459 1456 1451 1455 1458 1458 1462 1463 1461 1458 1457 1461 1463 1467 1480 1487 1491 1500 1497 1492 1499 1495 1476 1465 1463 1473 1491 1493 1488 1489 1487 1489 1493 1495 1498 1500 1503 1504 1506 1509 1511 1512 1515 1517 1520 1521 1522 1524 1526 1528 1531 1533 1535 1537 1539 1541 1542 1544 1544 1545 1546 1548 1550 1551 1553 1555 1557 1559 1561 1563 1564 1566 1567 1569 1570 1571 1572 1573 1574 1575 1576 1577 1578 1579 1580 1581
1469 1462 1453 1458 1459 1457 1460 1463 1466 1466 1463 1466 1467 1471 1483 1492 1506 1516 1505 1495 1494 1486 1472 1460 1463 1485 1500 1494 1489 1489 1488 1489 1491 1493 1496 1498 1501 1504 1504 1507 1509 1510 1513 1515 1519 1521 1521 1523 1525 1527 1530 1532 1534 1536 1538 1540 1541 1543 1544 1544 1546 1547 1549 1551 1552 1554 1556 1557 1559 1561 1563 1565 1566 1568 1569 1570 1571 1572 1573 1574 1575 1576 1577 1578 1579 1580
1473 1472 1458 1456 1458 1457 1459 1457 1457 1459 1462 1465 1462 1465 1474 1481 1495 1502 1495 1495 1494 1482 1472 1463 1468 1487 1499 1496 1488 1485 1487 1490 1491 1492 1495 1498 1500 1503 1504 1505 1507 1510 1512 1515 1518 1520 1521 1523 1525 1527 1529 1531 1533 1535 1537 1539 1540 1541 1543 1544 1545 1547 1548 1550 1551 1553 1555 1556 1558 1560 1562 1564 1565 1567 1568 1569 1571 1571 1573 1574 1575 1576 1577 1578 1579 1580
1471 1469 1453 1449 1451 1453 1460 1457 1449 1454 1462 1463 1459 1463 1469 1468 1473 1478 1477 1478 1477 1477 1473 1468 1476 1484 1486 1488 1482 1480 1487 1490 1492 1492 1494 1500 1501 1501 1504 1505 1507 1510 1512 1514 1516 1519 1520 1522 1524 1526 1528 1530 1532 1534 1536 1538 1539 1540 1542 1543 1544 1546 1547 1549 1551 1553 1554 1556 1557 1559 1561 1562 1564 1565 1567 1568 1570 1571 1572 1573 1574 1575 1577 1578 1579 1579
1479 1469 1447 1446 1450 1450 1457 1456 1449 1455 1464 1463 1465 1468 1462 1455 1459 1469 1473 1464 1466 1480 1474 1468 1487 1491 1486 1492 1487 1482 1489 1491 1492 1494 1495 1501 1502 1502 1504 1506 1509 1510 1510 1512 1514 1517 1519 1521 1523 1525 1528 1530 1531 1533 1535 1537 1538 1540 1541 1542 1543 1545 1547 1548 1550 1552 1554 1555 1557 1558 1560 1561 1563 1564 1566 1567 1568 1570 1571 1572 1573 1575 1576 1577 1578 1579
1481 1473 1450 1447 1457 1455 1454 1455 1449 1449 1457 1465 1468 1464 1457 1456 1459 1466 1476 1473 1475 1484 1472 1469 1492 1497 1496 1506 1497 1491 1498 1497 1496 1497 1497 1500 1502 1504 1506 1507 1510 1510 1509 1511 1512 1515 1517 1519 1521 1523 1525 1528 1529 1532 1534 1535 1537 1538 1540 1541 1542 1544 1546 1547 1549 1551 1553 1554 1556 1558 1559 1561 1562 1563 1565 1566 1567 1569 1570 1571 1573 1574 1575 1576 1577 1579
1476 1480 1465 1453 1460 1458 1452 1457 1457 1448 1450 1458 1458 1453 1459 1473 1474 1471 1478 1483 1484 1485 1474 1472 1486 1489 1495 1504 1497 1497 1503 1501 1501 1501 1500 1501 1502 1505 1507 1507 1509 1509 1509 1512 1512 1514 1515 1515 1518 1519 1522 1525 1528 1530 1532 1533 1535 1536 1539 1541 1542 1543 1545 1547 1549 1550 1552 1554 1555 1557 1558 1560 1562 1563 1564 1565 1566 1567 1568 1570 1571 1573 1574 1575 1576 1578
1473 1485 1482 1463 1457 1459 1457 1464 1469 1461 1455 1455 1456 1456 1460 1468 1471 1468 1470 1475 1481 1484 1475 1478 1492 1492 1493 1497 1495 1499 1502 1500 1504 1504 1503 1505 1506 1507 1509 1509 1510 1510 1509 1510 1511 1514 1514 1513 1516 1518 1522 1525 1526 1528 1529 1531 1534 1535 1538 1541 1541 1542 1544 1547 1549 1550 1552 1553 1555 1557 1559 1560 1562 1563 1564 1565 1566 1566 1567 1568 1570 1571 1573 1574 1575 1576
1474 1483 1485 1469 1458 1461 1466 1469 1469 1467 1465 1464 1467 1469 1465 1463 1462 1461 1460 1460 1470 1480 1472 1482 1511 1510 1493 1492 1494 1496 1499 1500 1503 1505 1506 1509 1511 1512 1512 1512 1514 1514 1512 1511 1511 1512 1512 1513 1516 1518 1521 1523 1525 1527 1528 1529 1532 1533 1537 1539 1539 1541 1544 1546 1548 1550 1552 1553 1555 1557 1559 1560 1562 1563 1564 1565 1566 1566 1566 1567 1568 1570 1571 1573 1574 1575
1477 1480 1482 1475 1466 1464 1465 1463 1460 1460 1460 1462 1465 1465 1463 1463 1463 1468 1471 1460 1460 1470 1465 1479 1517 1518 1493 1489 1492 1490 1495 1499 1502 1506 1508 1511 1514 1516 1516 1516 1516 1517 1517 1516 1515 1514 1512 1512 1513 1516 1518 1521 1524 1527 1527 1527 1529 1531 1533 1536 1537 1540 1544 1546 1547 1549 1551 1552 1555 1557 1559 1560 1562 1563 1564 1565 1566 1566 1566 1566 1567 1568 1570 1571 1573 1574
1477 1480 1485 1480 1468 1462 1458 1454 1454 1456 1455 1456 1457 1455 1455 1456 1457 1468 1479 1469 1458 1463 1464 1477 1509 1512 1492 1486 1489 1489 1494 1499 1504 1507 1509 1512 1515 1517 1519 1520 1519 1519 1519 1519 1519 1517 1515 1512 1512 1515 1518 1521 1524 1527 1527 1527 1528 1529 1531 1532 1534 1538 1543 1546 1547 1548 1549 1550 1553 1555 1558 1560 1561 1562 1563 1565 1565 1565 1565 1566 1566 1566 1568 1569 1571 1572
1479 1481 1488 1486 1473 1462 1456 1452 1453 1455 1458 1460 1456 1450 1449 1452 1454 1459 1465 1467 1464 1465 1471 1488 1510 1511 1493 1485 1487 1491 1495 1499 1505 1508 1510 1513 1515 1518 1521 1522 1522 1522 1522 1521 1520 1519 1517 1515 1514 1515 1517 1520 1523 1526 1526 1527 1528 1529 1531 1533 1534 1537 1541 1545 1546 1546 1547 1549 1551 1552 1554 1557 1559 1561 1562 1563 1564 1565 1565 1565 1565 1565 1566 1567 1569 1570
1486 1484 1489 1496 1494 1483 1472 1468 1469 1464 1463 1465 1459 1451 1449 1450 1456 1461 1461 1466 1472 1469 1473 1497 1518 1513 1496 1488 1490 1493 1495 1499 1504 1509 1512 1514 1515 1519 1522 1523 1524 1524 1523 1522 1521 1519 1517 1516 1516 1517 1518 1519 1522 1524 1526 1527 1528 1530 1533 1535 1536 1538 1540 1542 1543 1544 1545 1547 1549 1549 1550 1553 1556 1559 1561 1561 1562 1563 1564 1565 1565 1564 1565 1566 1567 1568
1489 1486 1487 1497 1505 1501 1493 1489 1485 1474 1468 1465 1457 1453 1453 1454 1461 1469 1469 1474 1479 1471 1475 1499 1516 1511 1498 1494 1494 1494 1496 1501 1504 1508 1512 1515 1518 1521 1522 1524 1525 1524 1524 1523 1522 1521 1519 1517 1516 1517 1519 1521 1522 1523 1525 1527 1528 1530 1533 1535 1536 1538 1540 1541 1542 1542 1543 1545 1546 1547 1547 1549 1552 1556 1559 1560 1561 1562 1563 1563 1564 1564 1564 1564 1566 1567
1489 1487 1486 1493 1499 1498 1494 1489 1478 1469 1468 1467 1460 1456 1459 1461 1465 1471 1477 1481 1479 1477 1487 1499 1503 1506 1505 1499 1497 1497 1498 1502 1504 1506 1510 1513 1517 1521 1522 1524 1525 1524 1525 1524 1523 1524 1523 1522 1520 1518 1518 1520 1521 1523 1525 1526 1528 1530 1532 1534 1536 1538 1539 1540 1540 1540 1541 1542 1544 1545 1545 1546 1549 1553 1557 1560 1561 1561 1562 1562 1563 1563 1563 1563 1564 1566
1491 1491 1487 1489 1493 1489 1485 1482 1474 1469 1471 1471 1465 1461 1463 1467 1471 1475 1480 1480 1475 1483 1502 1503 1496 1503 1508 1501 1500 1501 1500 1502 1505 1507 1510 1512 1516 1520 1522 1524 1525 1525 1525 1525 1525 1525 1525 1526 1526 1523 1521 1520 1521 1523 1525 1526 1527 1528 1530 1531 1534 1536 1537 1537 1537 1538 1538 1539 1541 1544 1544 1545 1548 1551 1554 1558 1561 1561 1561 1561 1562 1563 1562 1563 1563 1565
1495 1494 1486 1484 1488 1485 1482 1481 1477 1474 1475 1470 1463 1461 1467 1472 1476 1479 1478 1474 1473 1486 1501 1502 1497 1501 1503 1499 1501 1502 1501 1503 1506 1508 1511 1512 1515 1519 1522 1524 1525 1526 1526 1527 1527 1527 1527 1528 1528 1529 1528 1527 1526 1526 1526 1526 1526 1528 1529 1531 1532 1533 1534 1534 1534 1535 1536 1536 1537 1540 1542 1544 1547 1551 1552 1555 1558 1561 1562 1561 1561 1562 1562 1562 1563 1564
1497 1495 1489 1487 1486 1482 1482 1483 1479 1478 1478 1471 1463 1464 1473 1476 1475 1476 1475 1471 1476 1487 1493 1495 1499 1505 1506 1502 1500 1500 1503 1506 1508 1511 1513 1513 1515 1520 1522 1524 1526 1526 1527 1528 1528 1529 1529 1530 1530 1531 1531 1532 1532 1531 1530 1528 1528 1528 1529 1530 1531 1532 1532 1533 1533 1533 1533 1534 1535 1537 1539 1542 1546 1552 1554 1554 1554 1557 1559 1561 1562 1563 1563 1562 1562 1564
1498 1497 1493 1493 1492 1486 1482 1483 1482 1480 1481 1479 1473 1473 1479 1481 1477 1477 1476 1474 1480 1489 1491 1495 1503 1510 1511 1507 1502 1503 1507 1509 1511 1513 1514 1515 1518 1520 1523 1525 1527 1527 1528 1529 1529 1530 1530 1531 1531 1532 1532 1533 1533 1533 1532 1530 1528 1528 1529 1530 1530 1531 1532 1532 1532 1532 1533 1534 1535 1537 1539 1541 1544 1549 1553 1555 1555 1554 1555 1557 1559 1562 1564 1564 1564 1563
1498 1499 1495 1496 1502 1495 1483 1484 1485 1481 1481 1483 1480 1477 1481 1484 1482 1479 1478 1477 1481 1486 1491 1501 1509 1509 1508 1506 1505 1507 1509 1511 1515 1516 1517 1519 1520 1522 1525 1527 1528 1528 1529 1529 1530 1531 1531 1531 1531 1532 1532 1533 1533 1534 1533 1531 1529 1528 1530 1531 1530 1529 1530 1531 1531 1532 1533 1533 1535 1536 1538 1541 1543 1546 1549 1551 1553 1555 1555 1556 1557 1558 1560 1562 1564 1564
1498 1500 1497 1499 1505 1497 1483 1483 1484 1484 1492 1494 1483 1477 1481 1483 1482 1479 1476 1479 1481 1481 1488 1501 1507 1503 1501 1502 1506 1508 1510 1513 1517 1519 1520 1522 1523 1524 1526 1527 1528 1529 1529 1530 1531 1531 1532 1532 1532 1532 1533 1533 1533 1534 1533 1532 1530 1529 1528 1530 1530 1528 1529 1529 1530 1532 1533 1533 1534 1536 1537 1540 1541 1543 1545 1546 1547 1550 1553 1556 1558 1559 1559 1558 1559 1561
1499 1503 1501 1498 1503 1498 1485 1484 1490 1499 1507 1499 1480 1473 1476 1480 1482 1481 1479 1482 1486 1485 1487 1494 1500 1500 1500 1501 1506 1510 1511 1514 1518 1520 1522 1524 1525 1526 1527 1528 1529 1530 1530 1531 1531 1531 1532 1533 1533 1534 1533 1533 1534 1534 1533 1532 1531 1530 1529 1529 1529 1529 1528 1529 1530 1531 1532 1532 1534 1535 1537 1539 1540 1541 1543 1543 1544 1546 1549 1551 1553 1555 1556 1555 1554 1555
1500 1502 1501 1498 1501 1499 1488 1492 1509 1516 1505 1489 1479 1477 1479 1480 1482 1484 1484 1485 1488 1491 1492 1494 1499 1501 1501 1503 1508 1511 1513 1515 1518 1521 1523 1525 1527 1528 1528 1529 1530 1530 1531 1531 1531 1532 1533 1533 1534 1534 1534 1534 1534 1534 1533 1532 1531 1531 1530 1529 1530 1530 1529 1529 1530 1530 1531 1532 1533 1534 1536 1537 1538 1540 1541 1541 1542 1543 1546 1548 1549 1550 1551 1551 1551 1552
1502 1502 1501 1498 1500 1501 1496 1501 1514 1512 1494 1485 1487 1486 1485 1486 1487 1491 1496 1494 1492 1494 1497 1498 1500 1502 1503 1506 1509 1511 1514 1516 1519 1522 1524 1527 1529 1529 1530 1530 1531 1532 1532 1531 1532 1532 1533 1533 1534 1534 1535 1535 1535 1535 1534 1533 1532 1532 1531 1531 1531 1531 1530 1530 1530 1530 1531 1531 1532 1533 1535 1535 1536 1538 1539 1539 1540 1540 1541 1543 1545 1547 1548 1548 1549 1551
1504 1504 1504 1502 1500 1501 1501 1501 1504 1503 1496 1493 1493 1491 1490 1492 1492 1495 1500 1499 1494 1495 1499 1501 1502 1503 1504 1506 1508 1511 1514 1516 1519 1523 1525 1527 1530 1530 1531 1531 1532 1532 1532 1532 1533 1533 1533 1534 1534 1535 1535 1536 1535 1536 1535 1534 1533 1532 1532 1532 1532 1531 1531 1530 1530 1530 1530 1530 1531 1531 1532 1533 1534 1535 1536 1536 1537 1537 1538 1539 1540 1542 1543 1545 1546 1547
1504 1505 1507 1509 1503 1498 1501 1503 1504 1509 1508 1499 1494 1493 1493 1494 1494 1496 1500 1501 1496 1496 1500 1503 1504 1504 1505 1506 1507 1511 1514 1516 1520 1525 1526 1528 1529 1530 1531 1532 1533 1533 1533 1533 1533 1533 1533 1534 1534 1535 1536 1536 1536 1536 1536 1535 1534 1533 1533 1533 1533 1532 1532 1531 1531 1531 1530 1530 1530 1530 1530 1531 1532 1532 1533 1533 1534 1534 1535 1536 1536 1537 1538 1539 1540 1542
1505 1504 1505 1511 1508 1501 1503 1506 1505 1511 1512 1502 1495 1495 1496 1497 1497 1498 1504 1506 1499 1497 1501 1503 1504 1506 1507 1508 1509 1511 1515 1518 1522 1525 1528 1529 1530 1531 1532 1533 1533 1533 1533 1533 1533 1533 1534 1534 1534 1535 1535 1535 1536 1536 1537 1536 1535 1534 1533 1533 1533 1533 1532 1531 1531 1531 1531 1530 1530 1530 1529 1530 1530 1530 1530 1531 1531 1531 1532 1533 1533 1534 1534 1534 1535 1536
1507 1505 1505 1510 1510 1504 1505 1505 1502 1505 1508 1502 1498 1498 1499 1499 1498 1504 1514 1511 1501 1500 1504 1503 1504 1506 1509 1512 1513 1514 1517 1521 1523 1525 1528 1530 1531 1532 1533 1533 1534 1534 1534 1533 1533 1533 1534 1534 1534 1535 1535 1535 1535 1536 1536 1536 1535 1534 1533 1533 1533 1533 1532 1532 1532 1532 1532 1531 1531 1530 1529 1529 1528 1528 1528 1528 1528 1529 1530 1531 1531 1532 1532 1532 1532 1532
1506 1505 1504 1506 1505 1501 1503 1504 1503 1505 1504 1500 1499 1501 1500 1501 1503 1510 1517 1512 1503 1505 1507 1506 1505 1506 1510 1516 1517 1517 1520 1523 1525 1527 1528 1529 1531 1532 1533 1533 1534 1533 1533 1534 1533 1533 1534 1534 1534 1534 1535 1535 1535 1535 1535 1535 1534 1534 1533 1533 1533 1533 1532 1532 1532 1532 1532 1531 1531 1530 1530 1529 1528 1527 1527 1526 1526 1526 1527 1528 1528 1529 1529 1530 1530 1531
1506 1505 1504 1503 1501 1499 1499 1501 1505 1509 1505 1500 1501 1503 1502 1506 1510 1512 1512 1509 1508 1509 1510 1511 1511 1510 1511 1516 1520 1521 1523 1525 1527 1529 1529 1530 1532 1533 1533 1533 1533 1533 1533 1533 1533 1533 1533 1533 1533 1533 1534 1534 1534 1534 1534 1534 1533 1533 1532 1533 1533 1532 1532 1531 1531 1531 1531 1531 1530 1530 1529 1529 1529 1528 1526 1525 1525 1525 1525 1525 1526 1527 1527 1527 1528 1529
1504 1506 1506 1502 1499 1499 1501 1503 1510 1514 1507 1502 1504 1505 1504 1509 1512 1511 1510 1511 1512 1512 1512 1515 1515 1514 1515 1518 1520 1523 1524 1526 1528 1529 1530 1531 1532 1532 1533 1532 1532 1533 1533 1532 1533 1532 1531 1532 1532 1532 1532 1533 1533 1532 1532 1532 1532 1531 1532 1532 1531 1531 1531 1530 1530 1530 1530 1530 1530 1529 1529 1528 1528 1527 1526 1525 1524 1524 1524 1524 1524 1525 1525 1526 1526 1526
1501 1504 1505 1499 1496 1500 1504 1507 1510 1509 1504 1503 1506 1506 1506 1509 1511 1510 1511 1512 1514 1515 1516 1517 1518 1519 1520 1521 1522 1524 1525 1526 1529 1530 1531 1532 1533 1533 1533 1532 1532 1532 1532 1531 1531 1530 1530 1530 1530 1530 1531 1531 1531 1531 1530 1530 1530 1530 1531 1530 1530 1530 1529 1529 1529 1529 1528 1528 1528 1528 1528 1527 1527 1526 1525 1524 1523 1523 1523 1523 1523 1523 1524 1525 1524 1524
1499 1499 1502 1501 1497 1499 1503 1505 1506 1504 1503 1505 1506 1507 1508 1511 1511 1511 1513 1513 1515 1516 1516 1518 1519 1520 1521 1523 1524 1525 1526 1527 1529 1531 1531 1533 1533 1533 1533 1532 1532 1531 1530 1530 1530 1528 1528 1528 1528 1529 1529 1529 1529 1529 1529 1529 1529 1529 1529 1529 1528 1528 1528 1528 1528 1528 1527 1526 1526 1526 1526 1526 1526 1526 1525 1524 1523 1522 1521 1521 1522 1523 1524 1523 1523 1523
1497 1498 1501 1502 1499 1498 1500 1501 1501 1503 1504 1505 1507 1508 1510 1511 1511 1512 1514 1514 1515 1516 1516 1518 1519 1519 1521 1522 1524 1526 1527 1528 1530 1531 1532 1533 1533 1533 1533 1532 1531 1530 1529 1529 1528 1527 1526 1526 1526 1527 1527 1527 1527 1527 1527 1527 1527 1527 1527 1527 1526 1527 1526 1526 1526 1525 1525 1524 1524 1524 1524 1524 1524 1525 1525 1524 1523 1522 1521 1520 1521 1522 1523 1523 1523 1522
1494 1497 1499 1500 1501 1502 1501 1498 1498 1501 1503 1504 1506 1507 1509 1511 1512 1513 1514 1515 1516 1517 1517 1518 1519 1520 1522 1523 1524 1525 1527 1528 1529 1531 1531 1532 1533 1533 1532 1531 1530 1530 1529 1528 1527 1526 1525 1525 1525 1524 1524 1524 1524 1524 1524 1525 1525 1525 1525 1524 1524 1524 1524 1523 1523 1523 1522 1523 1522 1522 1522 1522 1522 1523 1523 1523 1522 1522 1521 1521 1520 1520 1520 1521 1521 1520
1495 1498 1498 1498 1500 1501 1499 1496 1497 1501 1502 1503 1505 1506 1507 1509 1511 1512 1514 1515 1516 1517 1518 1519 1520 1521 1522 1523 1524 1525 1526 1528 1529 1529 1530 1530 1531 1531 1531 1531 1530 1529 1528 1527 1526 1526 1525 1524 1524 1523 1523 1522 1522 1522 1522 1522 1522 1522 1522 1522 1521 1521 1521 1521 1521 1520 1520 1520 1520 1520 1520 1520 1520 1520 1521 1522 1522 1522 1522 1521 1520 1520 1519 1519 1518 1517
1499 1500 1498 1497 1499 1499 1498 1497 1498 1500 1501 1502 1504 1505 1506 1507 1509 1510 1512 1514 1515 1517 1519 1520 1521 1522 1522 1523 1524 1525 1526 1528 1528 1528 1529 1529 1529 1529 1529 1529 1529 1529 1528 1527 1527 1525 1524 1524 1523 1522 1522 1521 1521 1520 1520 1520 1520 1520 1520 1519 1519 1519 1518 1518 1518 1518 1518 1518 1518 1518 1518 1518 1519 1520 1520 1520 1520 1520 1520 1520 1520 1519 1518 1517 1517 1517
1501 1502 1500 1500 1502 1502 1502 1501 1500 1500 1502 1503 1504 1506 1507 1508 1509 1510 1511 1512 1514 1516 1517 1519 1520 1521 1522 1523 1524 1525 1526 1526 1527 1527 1528 1528 1528 1528 1527 1527 1527 1527 1527 1526 1526 1525 1524 1523 1522 1521 1521 1520 1519 1519 1519 1518 1518 1518 1518 1518 1517 1516 1516 1516 1515 1515 1516 1516 1517 1517 1517 1517 1517 1518 1518 1518 1517 1518 1517 1517 1517 1517 1516 1516 1516 1516
1503 1503 1504 1506 1507 1506 1506 1505 1504 1503 1504 1505 1506 1507 1508 1508 1509 1509 1510 1511 1512 1514 1516 1518 1519 1520 1521 1522 1522 1523 1523 1524 1525 1526 1526 1526 1526 1526 1526 1526 1525 1525 1525 1525 1524 1524 1523 1523 1522 1521 1520 1519 1518 1518 1517 1517 1517 1516 1516 1516 1515 1515 1514 1514 1513 1513 1513 1514 1515 1515 1515 1515 1515 1514 1514 1514 1514 1514 1513 1513 1513 1513 1513 1514 1513 1514